User: anonymous   Login
Location: Dompnac
(44.5644°N, 4.1026°E)
Time: 02:35:21
(UTC+00:00)
Language:

Cosmos 1544 - Orbit

View from above orbital plane
View from above orbital plane
View from above satellite
View from above satellite

Ground track
Ground track

The orbit data is extracted from the following two-line orbital elements,

1 14819U 84027A   20335.59567008 +.00002666 +00000-0 +95294-4 0  9990
2 14819 082.4830 196.3190 0011739 271.0818 088.9076 15.28317543008215
Epoch (UTC): 30 November 2020 14:17:45
Eccentricity: 0.0011739
inclination: 82.4830°
perigee height: 473 km
apogee height: 489 km
right ascension of ascending node: 196.3190°
argument of perigee: 271.0818°
revolutions per day: 15.28317543
mean anomaly at epoch: 88.9076°
orbit number at epoch: 821

The dashed part of the orbit path shows where the satellite is in the earth's shadow,  

DLR